Location: Cahoon Acres
(40.8736°N, 111.8994°W)
Time: 12:31:51
(UTC+00:00)

SR - Pass Details

Date: 08 June 2020
Orbit: 583 x 872 km, 66.7° (Epoch: 14 July)

Event Time Altitude Azimuth Distance (km) Brightness Sun altitude
Rises 21:56:07 0° 257° (WSW) 3,218 ? 54.0°
Reaches altitude 10° 21:59:35 10° 280° (W) 2,230 ? 53.4°
Maximum altitude 22:02:31 15° 316° (NW) 1,842 ? 52.8°
Drops below altitude 10° 22:05:20 10° 352° (N) 2,125 ? 52.3°
Sets 22:08:32 0° 15° (NNE) 2,982 ? 51.7°
